CAPE
1882 1704 1523 1401 1262 1156 1071 918 877 794 825 874 877 1056 1180 1177 1139 960 983 858 746 825 677 598 672 912 1182 1354 1393 1457 1432 1356 1558 1605 1773 1694 798 1210 1221 1371 1273 1062 766 466 277 260 261 202 223 270 219 163 99 109 78 63 57 58 21 2 1 0 0 0 0 1 2 2 2 2 1 1 1 2 1 0 0 2 1 0 0 0 1 2 4
1842 1577 1422 1300 1315 1124 1175 1052 1006 847 871 869 1184 1314 1180 1256 1409 1260 1035 1192 1076 889 964 862 725 950 1275 1356 1425 1466 1691 1755 1782 1682 1825 1691 1145 827 1449 1396 1308 1158 943 458 261 264 258 246 274 248 195 118 144 169 167 133 77 58 43 25 9 1 0 1 1 2 1 0 0 1 1 0 0 0 1 0 0 1 2 2 1 1 0 2 3
1735 1649 1608 1223 1253 1138 1183 1203 1238 1196 1270 1123 1128 1433 1355 1436 1472 1497 1433 1454 1192 955 1210 1147 1143 930 1148 1286 1504 1775 1709 1738 1674 1649 1602 1574 1444 786 1369 1395 1107 1098 1053 739 386 307 359 335 243 276 272 274 257 250 187 73 62 46 33 13 3 0 0 0 0 1 2 2 1 0 2 2 1 1 1 3 3 3 2 2 2 2 1 3 4
1867 1713 1532 1301 1380 1318 1218 1147 1356 1242 1270 1278 1246 1230 1379 1376 1418 1250 1346 1273 1137 1135 1058 1210 1337 1132 1067 1429 1566 1605 1655 1729 1528 1487 1409 1442 1567 660 1117 1218 1160 987 1006 937 773 527 480 434 344 364 426 342 339 296 225 189 95 0 0 0 0 0 0 0 0 0 0 1 1 1 1 0 1 1 1 3 2 0 1 0 1 0 0 0 0
1816 1543 1384 1463 1279 1106 1317 1319 1374 1208 1188 1105 1139 1165 1143 1182 1105 1033 1139 1157 1027 947 1000 1299 1432 1573 1485 1432 1587 1385 1584 1388 1497 1486 1567 1520 1312 637 915 770 958 1332 1078 954 993 620 642 519 470 617 572 623 541 377 330 215 163 53 0 2 0 0 0 0 1 0 0 0 0 0 0 0 1 1 1 1 2 0 0 0 0 0 0 1 0
1837 1560 1500 1682 1393 1467 1515 1431 1354 1179 1105 1035 1122 1128 1069 982 1065 1140 1052 1052 1112 1049 1139 1246 1077 1125 1338 1292 1432 1481 1424 1376 1422 1441 874 740 634 724 648 778 1013 933 796 1110 1131 879 991 661 676 670 650 656 574 518 427 328 228 106 56 9 0 1 0 0 0 0 0 0 0 0 0 0 0 0 0 1 1 1 0 0 0 0 0 0 0
1826 1761 1717 1783 1643 1620 1482 1300 1302 1284 1066 986 1048 998 1049 1069 1216 1244 1146 1127 1150 1010 1184 1288 1267 1114 1222 1268 1147 1151 1317 1334 1280 1585 1153 599 1240 916 777 772 542 554 943 1295 1252 947 1046 689 752 659 699 630 558 454 536 488 222 114 48 26 1 0 0 0 0 1 2 0 1 0 0 0 0 0 0 0 0 0 1 0 0 0 0 0 0
1852 1826 1808 1802 1536 1423 1554 1432 1288 1269 1253 1094 960 1106 1124 1183 1106 1201 1102 1075 1023 1033 1120 1137 1100 969 1051 1218 1328 1279 1346 1257 957 531 817 1144 815 782 681 700 838 907 402 557 1230 779 1079 1174 1130 748 671 564 550 511 475 528 334 176 121 71 37 4 8 0 0 0 0 0 0 0 0 0 0 0 0 0 0 0 0 0 0 0 0 0 0
1882 1800 1912 1956 1746 1658 1650 1490 1291 1214 1191 1161 1131 1087 1227 1071 971 935 871 956 1063 1100 1092 1053 960 927 998 1283 1400 1371 1360 1154 1209 770 731 848 1219 1440 1322 1448 1344 958 1357 1217 617 832 1273 1298 1232 1320 1026 650 636 645 606 578 412 454 268 195 127 62 31 16 0 0 0 0 0 0 0 0 0 1 1 0 0 0 0 0 0 0 0 0 0
1806 1729 2150 1912 1810 1752 1628 1447 1223 1314 1207 1115 1199 1154 1170 913 838 801 817 832 1039 1021 1103 1032 960 970 1115 1265 1347 1357 1374 1189 894 811 616 656 700 648 1049 1617 1574 1271 1292 1413 400 730 642 1143 1106 1030 927 740 769 659 688 682 525 419 431 570 376 197 174 115 78 8 2 7 0 0 0 0 0 0 0 1 1 1 0 0 0 0 0 0 0
1762 1777 1977 1821 1726 1574 1580 1497 1353 1292 1216 1108 1106 1112 1026 830 770 634 686 676 770 710 968 922 968 950 1071 1113 1161 1360 1294 1117 731 400 650 645 670 543 942 1301 1122 1173 1374 887 362 332 296 418 698 651 663 836 1019 661 757 651 621 408 612 617 436 366 278 411 273 92 48 32 34 0 0 0 0 0 0 1 1 1 0 1 1 0 0 0 0
1509 1711 1528 1294 1069 1485 1608 1593 1459 1459 1405 1192 976 1024 840 816 705 608 674 640 682 731 846 937 1058 1128 1159 1394 1386 1176 860 941 893 557 672 982 934 904 846 792 856 849 879 651 595 717 678 523 486 815 449 415 359 462 633 627 535 483 503 568 658 501 499 445 454 400 136 139 96 66 0 0 0 0 0 0 0 1 1 0 0 0 0 0 0
1602 1126 1041 948 1038 1136 1422 1438 1484 1523 1424 1387 1181 1176 834 809 723 665 537 598 498 661 758 1023 1150 1112 1051 1099 1059 956 904 837 948 944 935 954 885 973 960 957 786 753 655 736 502 678 824 1068 986 682 670 812 305 184 155 214 213 422 510 528 640 558 598 628 582 408 408 354 209 239 107 21 10 4 0 0 0 0 0 0 0 0 0 0 0
1132 1073 1015 1007 1057 1093 1158 1101 1181 1508 1429 1364 1327 1212 734 1032 758 898 622 477 832 988 1065 1076 876 870 749 702 518 614 738 775 715 642 732 693 858 663 431 766 743 743 844 625 558 517 923 908 714 495 768 860 656 581 446 614 447 62 226 365 603 650 747 532 626 411 340 285 439 282 227 157 57 25 42 42 58 31 0 0 0 0 0 0 0
1162 1109 1168 1079 1098 1139 1579 1785 1716 1486 1232 1256 1351 1418 1425 865 777 665 657 885 886 1088 1169 1110 770 815 905 564 304 546 413 702 580 609 684 744 678 638 332 667 647 644 549 749 740 765 397 507 375 536 859 805 697 648 627 450 184 115 217 581 727 744 687 638 613 526 391 505 356 399 242 235 194 167 209 155 212 121 68 8 0 0 0 0 0
962 1058 1043 1064 1189 1169 1625 1780 1603 1672 1246 1337 1362 1416 1518 1399 1278 1126 718 925 572 817 1092 1104 834 915 486 539 673 551 302 499 409 576 579 613 589 296 365 955 766 558 540 265 284 269 327 461 259 456 383 805 806 635 510 673 135 190 276 510 735 723 681 788 622 578 637 518 523 302 181 208 210 180 183 97 128 193 230 198 129 2 0 0 0
1072 990 791 1094 1156 1118 921 1196 1874 1803 1574 1416 1298 1265 1197 1207 1233 1231 1185 1034 512 973 996 1237 1068 879 686 589 479 326 412 736 590 221 215 428 505 511 383 646 544 515 504 510 283 342 211 175 162 199 254 402 481 667 798 708 782 886 685 488 607 678 687 678 585 477 505 491 304 217 156 129 97 70 59 41 40 67 98 134 199 116 76 68 6
978 1043 809 893 1101 1030 1029 853 1876 1144 1074 1473 1233 1176 1151 1107 1097 1210 1229 1178 918 976 802 1041 1112 1270 1255 1076 709 392 608 629 576 22 344 637 274 602 341 457 614 542 407 353 217 165 176 135 145 190 198 266 207 498 456 469 473 416 880 423 406 471 611 652 612 568 874 506 420 322 322 209 191 168 205 228 272 272 200 171 219 185 144 194 171
1024 862 908 904 987 886 992 977 1200 1113 1283 1636 1352 1361 1300 1119 1010 953 1204 1187 1318 1083 1122 1045 982 1178 1345 1334 1402 1322 932 652 596 352 178 276 220 386 652 367 366 324 126 176 166 123 133 61 215 180 201 212 264 282 176 117 7 0 260 449 493 564 525 395 536 1176 989 756 878 522 212 34 0 16 28 14 16 48 129 174 213 251 193 206 230
952 827 962 908 789 750 858 962 763 746 730 1699 1638 1461 1376 1249 1170 1160 1064 1107 1305 999 881 872 852 864 1242 874 1380 1237 943 732 694 474 631 534 92 610 462 247 71 50 37 15 81 64 49 159 124 125 154 153 235 241 246 114 166 104 288 328 413 362 185 0 0 14 269 252 160 38 7 0 0 0 0 0 0 0 0 4 32 79 35 0 0
778 836 774 643 780 751 852 859 905 757 775 698 1359 1518 1674 1555 1446 1363 1326 1156 1132 976 915 798 790 864 1026 635 851 910 989 993 943 872 641 591 426 230 254 43 22 11 7 10 11 49 32 22 65 82 106 138 92 99 43 28 34 0 0 0 115 101 0 0 0 0 0 0 0 0 0 0 0 0 0 0 0 0 0 0 0 0 0 0 0
785 778 745 622 684 790 863 807 987 829 621 596 955 1634 1700 1596 1496 1436 1472 1302 1159 1074 1014 1032 672 1034 1093 947 715 867 828 810 1089 924 784 592 490 532 444 307 77 10 16 17 7 6 6 6 22 35 42 13 22 5 4 1 0 0 0 0 0 0 0 0 0 0 0 0 0 0 0 0 0 0 0 0 0 0 0 0 0 0 0 0 0
644 856 824 659 723 714 692 742 788 833 493 575 1178 1095 1686 1694 1550 1575 1437 1322 963 1021 1122 687 808 902 1006 952 973 745 573 603 836 708 679 728 595 586 438 297 66 9 10 9 5 3 2 15 8 1 5 1 0 0 0 0 0 0 0 0 0 0 0 0 0 0 0 0 0 0 0 0 0 0 0 0 0 0 0 0 0 0 0 0 0
627 743 929 815 780 588 500 384 374 490 545 531 490 1352 1548 1643 1630 1464 1254 1188 1098 1066 1244 1317 854 688 994 812 1168 1004 716 675 483 702 618 690 690 544 345 134 124 28 2 12 6 4 3 1 4 0 0 0 0 0 0 0 0 0 0 0 0 0 0 0 0 0 0 0 0 0 0 0 0 0 0 0 0 0 0 0 0 0 0 0 0
522 468 899 869 659 558 458 371 356 374 314 324 473 456 618 699 1553 1369 1370 1289 1185 1554 1129 1276 1000 1039 945 928 925 914 745 796 699 700 680 666 730 448 151 97 58 6 1 2 2 2 6 2 0 0 0 3 0 0 0 0 0 0 0 0 0 0 0 0 0 0 0 0 0 0 0 0 0 0 0 0 0 0 0 0 0 0 0 0 0
450 570 768 623 545 497 403 318 334 362 436 547 527 503 877 346 948 1332 1349 1399 1391 1558 1318 1392 1228 1127 1033 859 1076 1008 1054 1028 986 780 776 734 596 461 296 154 26 1 0 0 0 0 0 0 0 0 0 0 0 0 0 0 0 0 0 0 0 0 0 0 0 0 0 0 0 0 0 0 0 0 0 0 0 0 0 0 0 0 0 0 0
408 595 665 653 575 508 441 418 375 479 506 612 661 758 843 239 407 1291 1274 1309 1373 1397 1246 1350 1308 1219 1272 1206 1122 1135 1163 1105 1023 939 610 749 760 552 240 65 5 1 3 0 0 0 0 0 0 0 0 0 0 0 0 0 0 0 0 0 0 0 0 0 0 0 0 0 0 0 0 0 0 0 0 0 0 0 0 0 0 0 0 0 0
445 642 687 583 601 548 346 248 202 420 402 415 372 281 585 400 353 861 780 842 1313 1499 1349 1466 1515 1396 1596 1604 1156 1064 1244 1130 1078 823 669 733 555 511 61 1 3 2 1 0 0 0 0 0 0 0 0 0 0 0 0 0 0 0 0 0 0 0 0 0 0 0 0 0 0 0 0 0 0 0 0 0 0 0 0 0 0 0 0 0 0
425 665 679 552 542 410 236 103 106 210 310 232 187 232 370 219 281 383 329 376 297 532 855 1150 1248 1440 1555 1630 1397 1314 1278 1354 1127 1082 1118 805 264 268 3 0 0 1 1 2 0 0 0 0 0 0 0 0 0 0 0 0 0 0 0 0 0 0 0 0 0 0 0 0 0 0 0 0 0 0 0 0 0 0 0 0 0 0 0 0 0
395 617 648 624 582 307 188 63 28 90 168 137 71 87 189 157 142 99 82 146 182 235 360 591 925 1343 1436 1414 1480 1242 1444 1511 1450 1414 1184 917 48 0 1 3 8 4 6 1 0 0 0 0 0 0 0 0 0 0 0 0 0 0 0 0 0 0 0 0 0 0 0 0 0 0 0 0 0 0 0 0 0 0 0 0 0 0 0 0 0
286 448 558 482 420 288 136 32 4 13 89 184 75 22 55 75 8 0 61 34 47 124 270 640 870 1132 1357 1557 1535 1499 1437 1684 1554 1217 1036 574 10 0 0 2 3 3 5 0 0 0 0 0 0 0 0 0 0 0 0 0 0 0 0 0 0 0 0 0 0 0 0 0 0 0 0 0 0 0 0 0 0 0 0 0 0 0 0 0 0
362 346 362 353 356 280 135 28 0 0 15 92 27 4 0 0 0 0 0 0 0 6 56 234 515 1156 1318 1379 1397 1350 1453 1269 1141 928 726 277 4 0 0 0 0 0 0 6 4 0 0 0 0 0 0 0 0 0 0 0 0 0 0 0 0 0 0 0 0 0 0 0 0 0 0 0 0 0 0 0 0 0 0 0 0 0 0 0 0
382 369 374 362 254 240 92 2 0 0 4 95 2 0 0 0 0 0 0 0 0 0 2 157 222 549 348 520 1068 1267 1303 698 649 586 191 154 16 0 0 0 0 0 4 13 7 0 0 0 0 0 0 0 0 0 0 0 0 0 0 0 0 0 0 0 0 0 0 0 0 0 0 0 0 0 0 0 0 0 0 0 0 0 0 0 0
347 266 245 236 205 179 74 0 0 0 0 38 4 0 0 0 0 0 0 0 0 0 0 3 110 417 279 134 200 668 605 394 172 9 22 9 0 0 0 0 0 0 0 0 2 0 0 0 0 0 0 0 0 0 0 0 0 0 0 0 0 0 0 0 0 0 0 0 0 0 0 0 0 0 0 0 0 0 0 0 0 0 0 0 0
208 210 182 144 86 96 18 0 0 0 0 8 5 0 0 0 0 0 0 0 0 0 0 0 1 99 196 264 288 692 448 272 86 4 9 0 0 0 0 0 0 0 0 0 1 1 0 0 0 0 0 0 0 0 0 0 0 0 0 0 0 0 0 0 0 0 0 0 0 0 0 0 0 0 0 0 0 0 0 0 0 0 0 0 0
162 138 85 34 34 37 1 0 0 0 0 0 1 0 0 0 0 0 0 0 0 0 0 0 0 3 55 118 355 512 340 288 110 39 18 0 0 0 0 0 0 5 48 26 2 2 4 0 0 0 0 0 0 0 0 0 0 0 0 0 0 0 0 0 0 0 0 0 0 0 0 0 0 0 0 0 0 0 0 0 0 0 0 0 0
97 76 21 24 30 7 0 0 0 0 0 0 0 0 0 0 0 0 0 0 0 0 0 0 0 0 2 16 15 103 149 72 65 2 0 0 0 0 0 0 0 18 106 121 121 14 24 19 0 0 0 0 0 0 0 0 0 0 0 0 0 0 0 0 0 0 0 0 0 0 0 0 0 0 0 0 0 0 0 0 0 0 0 0 0
42 7 10 3 0 0 0 0 0 0 0 0 0 0 0 0 0 0 0 0 0 0 0 0 0 7 9 0 0 1 4 16 2 4 0 0 0 0 0 0 1 0 1 21 71 62 71 36 15 0 0 0 0 0 0 0 0 0 0 0 0 0 0 0 0 0 0 0 0 0 0 0 0 0 0 0 0 0 0 0 0 0 0 0 0
25 6 0 0 0 0 0 0 0 0 0 0 0 0 0 0 0 0 0 0 0 0 0 0 0 0 0 9 29 36 32 43 58 33 42 20 5 0 1 0 0 0 0 0 0 9 22 15 0 0 0 0 0 0 0 0 0 0 0 0 0 0 0 0 0 0 0 0 0 0 0 0 0 0 0 0 0 0 0 0 0 0 0 0 0
2 0 0 0 0 0 0 0 0 0 0 0 0 0 0 0 0 0 1 3 0 0 0 0 1 19 22 6 1 0 3 10 49 74 80 70 32 65 18 0 2 0 2 4 8 6 14 25 3 3 2 1 0 0 0 0 0 0 0 0 0 0 0 0 0 0 0 0 0 0 0 0 0 0 0 0 0 0 0 0 0 0 0 0 0
27 0 0 0 0 0 0 4 0 0 0 0 0 0 2 0 1 2 1 0 0 0 0 2 4 20 30 91 125 115 1037 254 0 310 304 94 420 110 51 68 55 38 20 6 2 1 3 6 19 25 6 7 0 0 0 0 0 0 0 0 0 0 0 0 0 0 0 0 0 0 0 0 0 0 0 0 0 0 0 0 0 0 0 0 0
16 19 17 0 0 0 0 1 5 6 20 259 0 0 4 115 4 2 19 31 3 2 4 12 33 20 30 82 88 85 0 0 0 0 0 0 0 420 557 99 62 41 31 27 13 26 20 9 24 18 16 18 1 1 0 0 0 0 0 0 0 1 0 0 1 5 6 4 5 1 0 0 0 0 0 0 0 0 0 0 0 0 0 0 0
74 5 16 8 32 0 0 0 6 185 0 0 0 0 0 0 430 129 35 17 16 6 10 41 78 80 80 46 131 570 63 0 52 0 0 0 0 0 0 0 50 1004 84 32 46 45 16 13 20 14 11 9 0 0 0 0 0 0 0 0 0 0 0 0 0 0 1 3 4 1 0 0 0 0 0 0 0 0 0 0 0 0 0 0 0
103 110 61 30 32 30 13 73 248 2 0 0 0 0 0 0 0 109 170 117 125 52 71 103 118 146 135 123 204 394 257 184 235 142 0 0 0 0 0 0 0 0 0 293 306 68 56 57 78 146 114 50 11 2 0 0 0 0 0 0 1 0 2 0 0 1 0 1 0 2 3 0 0 0 0 0 0 0 0 0 0 0 0 0 0
32 36 18 22 34 127 79 4 0 0 0 0 0 0 0 0 0 41 85 221 206 121 125 162 135 119 197 620 947 863 698 463 389 419 586 189 0 0 0 0 0 0 0 0 0 41 248 116 137 142 159 112 76 71 51 26 2 2 0 1 0 0 0 0 0 1 0 0 0 0 0 0 0 0 0 0 0 0 0 0 0 0 0 0 0
1 0 0 0 22 71 15 0 0 0 0 0 0 0 0 0 0 0 214 379 416 328 361 442 576 578 647 792 741 937 1234 1272 589 372 686 798 621 105 2 5 67 266 0 0 0 0 0 57 230 274 274 241 284 280 225 164 184 175 56 9 6 0 0 0 2 0 0 0 0 0 0 0 0 1 2 0 0 0 0 0 0 0 0 0 0
2 4 1 1 25 33 1 0 0 0 0 0 0 0 0 0 0 4 797 934 647 604 647 787 943 848 920 942 813 498 646 1092 1248 1001 1086 1115 1145 1132 945 769 640 568 554 276 63 18 40 6 77 291 393 466 521 574 569 502 495 362 293 187 105 29 16 0 0 0 0 0 0 0 0 0 0 0 2 1 0 0 0 0 0 0 0 0 0
3 6 15 30 46 50 31 0 0 0 0 0 0 0 0 0 0 264 931 922 1034 1001 1133 1193 1081 969 1024 1044 1043 944 927 1050 1099 515 319 622 994 1242 1180 1190 1088 964 1033 1005 711 431 264 578 536 670 716 452 74 163 310 390 407 292 133 85 86 43 0 0 0 0 0 0 0 0 0 0 0 0 2 0 0 0 0 0 0 0 0 0 0
28 29 34 38 50 59 69 70 74 62 0 0 0 0 0 0 0 359 484 678 816 1038 1128 1328 1198 1062 1161 1126 860 716 1055 873 634 384 129 35 448 679 948 1045 1020 1105 1167 741 382 76 0 0 0 0 0 142 148 163 175 191 171 131 112 56 37 47 27 2 0 0 0 1 0 0 0 0 0 0 1 0 0 0 0 0 0 0 0 0 0
20 26 30 40 43 50 65 85 80 78 66 26 0 0 0 0 0 3 18 155 416 536 777 851 643 572 608 318 71 434 789 621 397 372 219 146 348 758 1043 1061 1057 1082 967 782 308 172 0 109 121 66 120 123 120 104 104 106 110 114 109 84 80 20 0 0 0 0 0 1 0 0 0 1 0 1 0 0 0 0 0 0 0 0 0 0 0
0 12 16 26 36 40 28 26 43 0 0 24 0 0 0 0 0 0 0 0 0 40 7 49 154 268 557 424 8 0 173 326 353 290 274 279 416 630 860 757 651 589 525 561 421 352 88 62 178 146 74 0 0 0 0 0 0 0 1 44 72 0 9 34 5 0 0 0 0 0 0 0 0 0 0 0 0 0 0 0 0 0 0 0 0
Wind_Speed
17 16 14 13 12 11 11 12 12 13 12 13 12 13 13 12 11 10 10 10 10 10 10 12 12 12 14 16 16 18 18 19 20 21 21 22 23 27 26 26 23 22 24 25 25 25 26 25 25 24 24 24 nan 23 nan nan nan nan nan nan nan nan nan nan nan nan nan nan nan nan nan nan nan nan nan nan nan nan nan nan nan nan nan nan nan
15 14 13 13 12 12 12 12 12 13 11 11 13 12 13 11 9 7 9 7 9 9 8 10 10 13 12 14 14 15 17 18 20 19 20 20 23 26 27 26 22 22 24 25 24 24 25 25 25 24 23 23 23 23 23 23 nan nan nan nan nan nan nan nan nan nan nan nan nan nan nan nan nan nan nan nan nan nan nan nan nan nan nan nan nan
14 12 12 12 11 11 11 12 11 10 10 12 13 12 11 10 8 8 8 7 8 8 6 9 9 11 12 11 14 14 16 17 17 18 18 20 22 24 25 23 23 23 24 23 23 24 24 24 24 23 23 22 22 22 22 nan nan nan nan nan nan nan nan nan nan nan nan nan nan nan nan nan nan nan nan nan nan nan nan nan nan nan nan nan nan
12 11 11 11 11 10 10 10 11 10 10 12 12 11 9 10 10 9 8 7 7 7 8 8 8 10 11 12 13 13 15 16 16 16 17 19 20 25 17 20 21 21 23 22 21 22 22 22 22 21 21 21 22 22 22 22 nan nan nan nan nan nan nan nan nan nan nan nan nan nan nan nan nan nan nan nan nan nan nan nan nan nan nan nan nan
10 10 10 10 10 10 10 10 11 12 12 12 11 9 8 8 9 8 7 8 7 7 8 9 10 10 9 13 12 14 14 15 14 14 17 17 18 25 16 16 17 18 19 20 20 20 20 20 20 19 18 19 19 21 21 21 22 nan nan nan nan nan nan nan nan nan nan nan nan nan nan nan nan nan nan nan nan nan nan nan nan nan nan nan nan
9 10 9 9 10 11 11 11 12 13 11 10 9 8 7 8 8 8 9 8 8 8 8 9 10 12 11 13 12 12 11 13 13 14 15 16 16 19 15 11 11 13 15 18 17 17 16 17 17 17 16 15 17 18 20 20 21 22 nan nan nan nan nan nan nan nan nan nan nan nan nan nan nan nan nan nan nan nan nan nan nan nan nan nan nan
9 9 9 9 10 11 10 11 12 12 10 9 9 9 8 8 7 8 9 8 8 10 9 10 10 12 13 11 12 12 11 12 12 11 15 11 11 13 12 11 8 8 13 15 18 18 15 15 14 15 15 15 15 18 18 20 21 21 nan nan nan nan nan nan nan nan nan nan nan nan nan nan nan nan nan nan nan nan nan nan nan nan nan nan nan
9 10 10 10 10 10 10 12 11 10 10 10 9 9 9 8 8 7 9 9 9 10 10 10 10 12 12 11 11 11 12 12 13 13 9 6 8 9 8 8 9 11 13 11 11 17 16 14 13 15 15 15 16 18 18 19 20 20 19 nan nan nan nan nan nan nan nan nan nan nan nan nan nan nan nan nan nan nan nan nan nan nan nan nan nan
10 10 10 10 11 10 12 11 10 11 10 10 8 9 9 9 8 7 7 10 10 11 11 11 12 13 12 12 12 11 12 12 10 12 5 7 8 6 7 8 8 11 11 12 14 12 17 18 19 18 15 15 16 17 17 17 18 18 18 18 19 nan nan nan nan nan nan nan nan nan nan nan nan nan nan nan nan nan nan nan nan nan nan nan nan
10 11 11 10 11 11 13 12 11 11 11 9 10 9 9 10 10 9 8 9 11 11 12 11 12 12 11 10 10 11 12 11 11 10 7 7 7 5 6 7 6 7 7 6 13 10 11 17 19 20 20 16 14 16 16 16 17 17 16 16 17 18 18 18 nan nan nan nan nan nan nan nan nan nan nan nan nan nan nan nan nan nan nan nan nan
11 11 10 10 11 13 13 13 13 12 11 10 11 10 10 11 11 11 9 9 10 11 12 12 12 12 11 11 10 11 10 8 9 6 5 4 6 5 7 7 6 7 6 4 6 8 7 9 8 11 16 20 18 16 16 16 16 15 15 15 16 17 17 16 19 nan nan nan nan nan nan nan nan nan nan nan nan nan nan nan nan nan nan nan nan
12 11 10 10 11 13 14 13 13 12 12 11 11 11 11 12 13 13 13 13 11 12 12 13 13 13 12 11 9 9 10 6 4 8 4 4 5 6 7 8 8 8 7 6 5 10 7 10 11 10 14 17 17 18 19 19 16 13 13 13 13 14 15 15 15 18 18 17 nan nan nan nan nan nan nan nan nan nan nan nan nan nan nan nan nan
13 12 11 11 12 13 13 13 13 13 13 13 11 12 11 12 13 12 14 14 13 12 13 11 12 12 12 12 11 10 9 5 4 6 5 4 4 7 8 5 7 6 8 5 6 7 9 8 10 13 15 13 15 18 18 20 18 15 12 11 10 11 12 13 13 13 15 15 14 18 18 nan nan nan nan nan nan nan nan nan nan nan nan nan nan
15 14 13 13 13 13 14 13 14 14 14 14 13 11 11 11 12 12 11 13 14 12 12 10 9 10 11 10 11 8 8 7 6 6 6 5 4 8 11 4 4 4 5 7 4 5 7 9 9 11 11 10 11 11 16 13 16 nan 11 10 10 11 12 13 13 14 14 14 13 15 17 16 nan nan nan nan nan nan nan nan nan nan nan nan nan
16 16 15 14 14 14 15 15 15 15 15 15 14 11 10 11 10 10 12 13 13 12 10 5 8 9 9 9 10 9 8 8 7 7 8 5 3 6 9 5 3 2 2 4 3 4 8 10 10 9 8 9 9 8 11 14 14 13 12 9 10 12 14 14 15 18 17 16 17 19 17 15 14 14 12 13 13 16 nan nan nan nan nan nan nan
17 16 15 16 15 16 16 17 16 15 14 15 13 11 11 10 9 9 11 13 12 12 10 7 7 9 9 3 10 7 9 7 7 6 9 5 6 12 6 6 4 1 3 9 6 8 8 10 10 8 7 9 9 9 9 11 15 15 13 11 11 13 15 17 19 20 21 19 21 21 21 20 18 18 19 nan 18 18 17 17 18 nan nan nan nan
18 16 17 17 17 17 17 17 17 15 14 14 13 12 12 10 10 10 10 11 13 13 11 8 8 11 3 9 8 6 4 10 5 9 9 7 9 11 10 7 7 7 6 8 9 9 9 9 9 9 9 10 11 11 11 12 13 13 16 14 12 15 18 20 19 19 21 24 23 23 22 21 nan nan nan nan nan nan nan 19 22 19 nan nan nan
18 17 18 19 19 18 17 17 17 15 14 14 13 13 12 12 11 10 10 10 10 13 12 11 9 9 11 11 8 7 7 9 4 nan 8 7 12 11 12 11 10 9 9 9 10 9 8 9 9 10 11 12 12 12 13 13 13 13 14 15 13 15 16 22 23 23 25 25 27 28 28 28 29 28 27 28 28 26 25 24 22 19 19 19 17
18 19 20 20 19 18 18 16 17 15 15 15 14 13 13 12 13 11 11 11 11 12 13 14 12 10 8 9 9 7 9 9 6 11 10 10 16 13 13 13 12 11 11 11 11 10 10 nan 11 12 13 13 14 15 16 17 nan nan 18 16 17 19 19 21 24 27 29 29 29 29 29 nan nan nan nan nan nan nan 32 31 31 31 31 32 31
18 19 20 20 19 18 17 17 16 16 15 15 15 14 14 14 14 13 13 12 12 11 13 14 11 13 8 8 10 10 9 7 5 6 12 12 nan 13 13 14 nan nan nan nan nan nan nan 11 12 13 14 13 14 15 16 17 17 18 15 15 19 20 21 nan nan nan 25 27 27 nan nan nan nan nan nan nan nan nan nan nan nan nan nan nan nan
18 19 19 20 19 18 18 17 16 16 16 16 16 17 16 16 15 14 14 13 13 12 12 13 10 12 12 9 7 10 10 8 10 8 9 13 14 13 13 nan nan nan nan nan nan nan nan nan nan nan 15 14 nan nan nan nan nan nan nan nan 19 20 nan nan nan nan nan nan nan nan nan nan nan nan nan nan nan nan nan nan nan nan nan nan nan
19 19 19 19 19 19 18 18 17 17 17 19 19 19 19 17 16 16 15 15 14 12 10 12 11 10 9 13 9 12 9 11 9 10 10 15 13 14 13 14 nan nan nan nan nan nan nan nan nan nan nan nan nan nan nan nan nan nan nan nan nan nan nan nan nan nan nan nan nan nan nan nan nan nan nan nan nan nan nan nan nan nan nan nan nan
19 18 17 19 19 18 18 18 19 18 18 19 19 19 19 18 17 17 17 15 15 13 12 11 12 9 8 13 8 13 10 12 12 11 10 11 15 15 14 15 nan nan nan nan nan nan nan nan nan nan nan nan nan nan nan nan nan nan nan nan nan nan nan nan nan nan nan nan nan nan nan nan nan nan nan nan nan nan nan nan nan nan nan nan nan
17 17 17 18 19 19 19 19 19 19 19 20 19 19 19 19 18 17 18 17 16 14 12 12 11 10 7 11 10 11 13 11 14 13 11 13 13 15 16 16 16 nan nan nan nan nan nan nan nan nan nan nan nan nan nan nan nan nan nan nan nan nan nan nan nan nan nan nan nan nan nan nan nan nan nan nan nan nan nan nan nan nan nan nan nan
16 16 17 18 19 21 20 19 20 19 20 20 21 19 19 18 19 19 19 18 16 14 13 12 9 9 9 9 9 10 12 12 14 14 13 13 13 15 15 nan nan nan nan nan nan nan nan nan nan nan nan nan nan nan nan nan nan nan nan nan nan nan nan nan nan nan nan nan nan nan nan nan nan nan nan nan nan nan nan nan nan nan nan nan nan
17 16 17 18 20 21 21 22 22 22 21 21 21 19 18 18 20 20 20 18 18 15 13 11 8 6 8 9 9 11 12 12 12 12 14 13 13 13 14 13 nan nan nan nan nan nan nan nan nan nan nan nan nan nan nan nan nan nan nan nan nan nan nan nan nan nan nan nan nan nan nan nan nan nan nan nan nan nan nan nan nan nan nan nan nan
17 18 18 19 21 22 23 24 24 22 21 21 21 20 19 19 20 21 19 18 18 15 14 12 9 7 8 8 10 10 11 12 11 11 13 13 12 12 12 nan nan nan nan nan nan nan nan nan nan nan nan nan nan nan nan nan nan nan nan nan nan nan nan nan nan nan nan nan nan nan nan nan nan nan nan nan nan nan nan nan nan nan nan nan nan
18 19 18 19 21 23 24 24 23 22 21 22 21 21 20 19 19 19 19 18 17 16 15 13 10 10 9 9 9 12 12 13 11 12 13 13 12 12 nan nan nan nan nan nan nan nan nan nan nan nan nan nan nan nan nan nan nan nan nan nan nan nan nan nan nan nan nan nan nan nan nan nan nan nan nan nan nan nan nan nan nan nan nan nan nan
19 19 18 19 20 20 22 22 21 20 21 22 22 22 20 20 19 19 19 18 18 17 16 15 13 10 11 11 10 14 13 14 13 14 14 13 14 13 nan nan nan nan nan nan nan nan nan nan nan nan nan nan nan nan nan nan nan nan nan nan nan nan nan nan nan nan nan nan nan nan nan nan nan nan nan nan nan nan nan nan nan nan nan nan nan
19 19 18 17 17 18 19 nan nan nan 20 21 nan nan 20 20 19 nan nan 16 16 16 16 15 13 11 12 12 13 14 16 14 15 14 14 14 nan nan nan nan nan nan nan nan nan nan nan nan nan nan nan nan nan nan nan nan nan nan nan nan nan nan nan nan nan nan nan nan nan nan nan nan nan nan nan nan nan nan nan nan nan nan nan nan nan
20 19 16 15 16 17 17 nan nan nan nan 21 nan nan nan nan nan nan nan nan nan 17 16 15 13 13 13 15 15 17 16 16 15 14 15 15 nan nan nan nan nan nan nan nan nan nan nan nan nan nan nan nan nan nan nan nan nan nan nan nan nan nan nan nan nan nan nan nan nan nan nan nan nan nan nan nan nan nan nan nan nan nan nan nan nan
20 18 15 15 16 16 17 nan nan nan nan nan nan nan nan nan nan nan nan nan nan nan nan 14 15 15 16 17 17 18 16 16 16 15 15 16 nan nan nan nan nan nan nan nan nan nan nan nan nan nan nan nan nan nan nan nan nan nan nan nan nan nan nan nan nan nan nan nan nan nan nan nan nan nan nan nan nan nan nan nan nan nan nan nan nan
19 18 17 17 17 16 nan nan nan nan nan nan nan nan nan nan nan nan nan nan nan nan nan 16 16 18 19 20 19 19 17 17 17 16 17 18 nan nan nan nan nan nan nan nan nan nan nan nan nan nan nan nan nan nan nan nan nan nan nan nan nan nan nan nan nan nan nan nan nan nan nan nan nan nan nan nan nan nan nan nan nan nan nan nan nan
18 19 19 17 16 16 nan nan nan nan nan nan nan nan nan nan nan nan nan nan nan nan nan nan 18 18 19 21 21 21 19 19 18 nan nan nan nan nan nan nan nan nan nan nan nan nan nan nan nan nan nan nan nan nan nan nan nan nan nan nan nan nan nan nan nan nan nan nan nan nan nan nan nan nan nan nan nan nan nan nan nan nan nan nan nan
19 18 17 16 nan nan nan nan nan nan nan nan nan nan nan nan nan nan nan nan nan nan nan nan nan nan 21 22 22 21 20 19 nan nan nan nan nan nan nan nan nan nan nan nan nan nan nan nan nan nan nan nan nan nan nan nan nan nan nan nan nan nan nan nan nan nan nan nan nan nan nan nan nan nan nan nan nan nan nan nan nan nan nan nan nan
20 19 nan nan nan nan nan nan nan nan nan nan nan nan nan nan nan nan nan nan nan nan nan nan nan nan nan 23 23 22 21 21 20 nan nan nan nan nan nan nan nan nan nan nan nan nan nan nan nan nan nan nan nan nan nan nan nan nan nan nan nan nan nan nan nan nan nan nan nan nan nan nan nan nan nan nan nan nan nan nan nan nan nan nan nan
nan nan nan nan nan nan nan nan nan nan nan nan nan nan nan nan nan nan nan nan nan nan nan nan nan nan nan nan nan 23 22 nan nan nan nan nan nan nan nan nan nan nan 20 19 18 nan nan nan nan nan nan nan nan nan nan nan nan nan nan nan nan nan nan nan nan nan nan nan nan nan nan nan nan nan nan nan nan nan nan nan nan nan nan nan nan
nan nan nan nan nan nan nan nan nan nan nan nan nan nan nan nan nan nan nan nan nan nan nan nan nan nan nan nan nan nan nan nan nan nan nan nan nan nan nan nan nan nan nan nan nan nan nan nan nan nan nan nan nan nan nan nan nan nan nan nan nan nan nan nan nan nan nan nan nan nan nan nan nan nan nan nan nan nan nan nan nan nan nan nan nan
nan nan nan nan nan nan nan nan nan nan nan nan nan nan nan nan nan nan nan nan nan nan nan nan nan nan nan nan nan nan nan nan nan nan nan nan nan nan nan nan nan nan nan nan nan nan nan nan nan nan nan nan nan nan nan nan nan nan nan nan nan nan nan nan nan nan nan nan nan nan nan nan nan nan nan nan nan nan nan nan nan nan nan nan nan
nan nan nan nan nan nan nan nan nan nan nan nan nan nan nan nan nan nan nan nan nan nan nan nan nan nan nan nan nan nan nan nan nan nan nan nan nan nan nan nan nan nan nan nan nan nan nan nan nan nan nan nan nan nan nan nan nan nan nan nan nan nan nan nan nan nan nan nan nan nan nan nan nan nan nan nan nan nan nan nan nan nan nan nan nan
nan nan nan nan nan nan nan nan nan nan nan nan nan nan nan nan nan nan nan nan nan nan nan nan nan nan nan nan 22 23 28 29 nan 28 29 nan 25 26 nan nan nan nan nan nan nan nan nan nan nan nan nan nan nan nan nan nan nan nan nan nan nan nan nan nan nan nan nan nan nan nan nan nan nan nan nan nan nan nan nan nan nan nan nan nan nan
nan nan nan nan nan nan nan nan nan nan nan 25 nan nan nan 20 nan nan nan nan nan nan nan nan nan nan nan nan nan nan nan nan nan nan nan nan nan 28 27 nan nan nan nan nan nan nan nan nan nan nan nan nan nan nan nan nan nan nan nan nan nan nan nan nan nan nan nan nan nan nan nan nan nan nan nan nan nan nan nan nan nan nan nan nan nan
nan nan nan nan nan nan nan nan nan 29 nan nan nan nan nan nan 19 15 nan nan nan nan nan nan nan nan nan nan 21 26 nan nan nan nan nan nan nan nan nan nan nan 30 nan nan nan nan nan nan nan nan nan nan nan nan nan nan nan nan nan nan nan nan nan nan nan nan nan nan nan nan nan nan nan nan nan nan nan nan nan nan nan nan nan nan nan
31 31 nan nan nan nan nan nan 38 nan nan nan nan nan nan nan nan 18 16 18 20 nan nan 22 23 24 24 23 24 25 24 24 25 28 nan nan nan nan nan nan nan nan nan 32 30 nan nan nan nan 32 33 nan nan nan nan nan nan nan nan nan nan nan nan nan nan nan nan nan nan nan nan nan nan nan nan nan nan nan nan nan nan nan nan nan nan
nan nan nan nan nan 39 nan nan nan nan nan nan nan nan nan nan nan nan nan 19 21 22 24 24 25 26 25 26 27 28 29 35 29 28 31 34 nan nan nan nan nan nan nan nan nan nan 33 31 32 32 33 34 nan nan nan nan nan nan nan nan nan nan nan nan nan nan nan nan nan nan nan nan nan nan nan nan nan nan nan nan nan nan nan nan nan
nan nan nan nan nan nan nan nan nan nan nan nan nan nan nan nan nan nan 20 21 22 23 24 25 26 27 28 27 28 29 31 32 31 31 32 33 36 37 nan nan nan 36 nan nan nan nan nan nan 33 33 35 36 36 37 38 39 40 41 nan nan nan nan nan nan nan nan nan nan nan nan nan nan nan nan nan nan nan nan nan nan nan nan nan nan nan
nan nan nan nan nan nan nan nan nan nan nan nan nan nan nan nan nan nan 22 24 23 24 25 26 27 27 28 29 28 28 29 30 32 36 34 34 35 36 36 36 36 35 37 38 nan nan nan nan nan 35 35 36 36 37 40 42 42 41 41 42 44 nan nan nan nan nan nan nan nan nan nan nan nan nan nan nan nan nan nan nan nan nan nan nan nan
nan nan nan nan nan nan nan nan nan nan nan nan nan nan nan nan nan 22 26 25 26 26 27 27 27 28 28 29 28 29 31 30 43 44 39 37 35 35 36 37 37 38 37 47 50 49 45 43 41 41 43 48 nan 46 48 47 45 46 48 nan nan nan nan nan nan nan nan nan nan nan nan nan nan nan nan nan nan nan nan nan nan nan nan nan nan
nan nan nan nan nan nan nan nan nan nan nan nan nan nan nan nan nan 28 27 26 28 27 27 28 28 29 30 31 32 31 32 35 45 46 42 nan 36 35 36 37 39 40 39 48 51 nan nan nan nan nan nan 43 45 46 46 48 48 47 49 nan nan nan nan nan nan nan nan nan nan nan nan nan nan nan nan nan nan nan nan nan nan nan nan nan nan
nan nan nan nan nan nan nan nan nan nan nan nan nan nan nan nan nan nan nan 31 31 31 31 32 31 31 35 42 nan 31 32 40 45 48 45 42 38 38 38 38 39 40 40 48 52 52 nan 54 54 nan 54 54 55 55 55 54 54 52 50 nan nan nan nan nan nan nan nan nan nan nan nan nan nan nan nan nan nan nan nan nan nan nan nan nan nan
nan nan nan nan nan nan nan nan nan nan nan nan nan nan nan nan nan nan nan nan nan nan nan nan 36 36 38 44 nan nan 46 49 49 50 46 42 40 39 40 41 41 41 44 46 50 52 nan nan 57 60 nan nan nan nan nan nan nan nan nan nan nan nan nan nan nan nan nan nan nan nan nan nan nan nan nan nan nan nan nan nan nan nan nan nan nan
Wind_Direction
301 295 288 282 275 272 270 268 265 264 268 271 275 275 277 275 267 263 256 257 260 267 272 276 285 287 288 291 291 288 287 283 280 279 279 282 280 280 280 278 275 269 271 269 271 273 275 273 270 270 269 269 nan 272 nan nan nan nan nan nan nan nan nan nan nan nan nan nan nan nan nan nan nan nan nan nan nan nan nan nan nan nan nan nan nan
295 288 283 281 279 280 277 275 272 267 266 270 271 277 279 276 272 271 273 270 270 264 271 284 293 286 289 292 294 292 286 286 282 281 279 277 278 279 278 278 271 271 267 268 270 272 271 270 270 270 271 270 272 273 274 276 nan nan nan nan nan nan nan nan nan nan nan nan nan nan nan nan nan nan nan nan nan nan nan nan nan nan nan nan nan
290 283 277 278 277 282 282 281 280 273 267 267 268 272 272 266 261 263 267 269 274 284 287 285 282 292 288 298 293 289 289 282 286 280 282 277 278 273 277 277 283 279 274 269 270 271 272 272 273 273 272 273 273 273 275 nan nan nan nan nan nan nan nan nan nan nan nan nan nan nan nan nan nan nan nan nan nan nan nan nan nan nan nan nan nan
286 277 272 272 273 277 280 279 274 269 268 274 277 272 269 266 269 267 268 274 285 287 282 285 286 282 297 292 300 301 290 287 286 285 279 281 282 279 280 284 279 282 276 272 270 272 276 277 275 273 274 275 274 274 274 276 nan nan nan nan nan nan nan nan nan nan nan nan nan nan nan nan nan nan nan nan nan nan nan nan nan nan nan nan nan
273 269 268 264 267 274 275 275 271 269 269 275 275 272 270 277 277 282 289 287 290 289 289 291 291 286 299 299 300 292 289 291 286 292 287 292 281 275 268 266 281 277 274 272 266 269 275 276 272 272 272 276 279 278 277 276 278 nan nan nan nan nan nan nan nan nan nan nan nan nan nan nan nan nan nan nan nan nan nan nan nan nan nan nan nan
264 265 260 259 268 270 270 267 263 267 265 269 271 272 276 284 287 293 289 292 291 292 298 301 299 306 298 295 296 290 297 291 295 288 283 262 262 266 276 277 265 271 275 278 270 271 266 267 271 273 271 273 276 279 282 281 279 278 nan nan nan nan nan nan nan nan nan nan nan nan nan nan nan nan nan nan nan nan nan nan nan nan nan nan nan
263 260 263 259 263 266 264 262 260 262 262 257 260 266 274 283 286 289 289 288 287 287 292 291 296 293 291 295 300 303 306 299 291 287 275 283 271 282 294 295 296 294 274 268 274 267 275 277 275 272 273 274 274 277 279 282 280 280 nan nan nan nan nan nan nan nan nan nan nan nan nan nan nan nan nan nan nan nan nan nan nan nan nan nan nan
263 263 262 262 263 263 262 257 264 258 255 257 263 271 272 275 273 283 296 297 297 296 291 292 292 290 291 298 300 307 309 309 296 283 291 291 290 290 297 294 299 286 283 274 261 267 268 269 264 269 272 275 278 279 280 282 283 285 288 nan nan nan nan nan nan nan nan nan nan nan nan nan nan nan nan nan nan nan nan nan nan nan nan nan nan
262 265 260 262 262 262 256 256 256 254 255 261 265 268 278 281 284 283 290 294 292 287 288 294 297 294 297 299 304 311 309 298 284 277 310 266 256 280 274 281 276 268 286 288 269 268 265 258 259 260 267 273 278 280 281 285 286 289 292 293 294 nan nan nan nan nan nan nan nan nan nan nan nan nan nan nan nan nan nan nan nan nan nan nan nan
262 261 254 255 257 253 252 252 252 252 254 259 259 264 270 277 282 279 282 293 293 295 294 290 288 292 294 296 303 311 309 305 273 258 263 270 283 313 299 285 301 310 298 276 270 264 266 265 262 259 263 268 280 287 289 292 290 289 293 299 301 300 300 298 nan nan nan nan nan nan nan nan nan nan nan nan nan nan nan nan nan nan nan nan nan
264 258 254 257 255 251 250 256 252 253 257 261 265 269 272 278 280 276 275 280 281 287 284 284 286 290 297 299 303 301 308 309 295 285 272 289 290 304 301 305 316 321 323 287 293 284 256 260 252 269 267 261 267 278 292 293 288 284 290 299 302 301 301 306 304 nan nan nan nan nan nan nan nan nan nan nan nan nan nan nan nan nan nan nan nan
259 257 257 258 257 252 252 255 257 261 264 266 270 275 283 286 284 285 281 274 278 281 286 286 283 285 285 285 286 300 308 321 281 284 293 294 295 304 309 312 320 318 322 319 308 299 316 293 306 300 277 275 269 264 262 259 259 267 272 281 286 295 302 299 304 307 310 308 nan nan nan nan nan nan nan nan nan nan nan nan nan nan nan nan nan
259 259 258 260 257 256 258 257 258 260 265 267 269 277 285 283 280 281 286 284 282 280 280 287 293 291 291 292 293 288 289 309 277 263 274 284 299 312 282 305 306 324 300 319 289 285 293 274 277 288 299 299 291 285 281 270 259 255 261 274 288 296 309 309 311 304 316 321 318 318 320 nan nan nan nan nan nan nan nan nan nan nan nan nan nan
257 258 259 262 261 260 260 261 261 259 262 266 273 278 286 284 280 282 284 284 278 280 282 297 302 301 302 304 298 289 289 297 297 282 284 281 329 300 299 313 295 313 314 275 240 256 257 271 264 267 268 268 278 300 297 291 283 nan 276 289 299 311 315 318 320 321 318 325 329 332 329 328 nan nan nan nan nan nan nan nan nan nan nan nan nan
258 259 259 261 262 263 264 262 263 262 265 270 274 281 282 285 290 286 285 277 278 283 296 281 291 297 299 305 293 290 298 283 279 280 259 267 286 288 277 293 303 314 304 308 277 251 244 241 247 251 258 272 278 280 288 286 283 283 284 287 305 314 307 312 315 321 322 321 319 320 322 319 322 328 325 320 315 322 nan nan nan nan nan nan nan
259 261 259 262 264 266 266 265 263 260 261 267 273 278 277 277 279 279 283 284 285 291 295 286 293 307 302 311 291 312 291 281 282 256 276 279 274 261 263 266 295 235 251 252 241 253 260 255 255 261 280 283 290 295 289 288 308 305 292 285 291 296 302 301 307 314 316 313 311 308 311 310 303 308 309 nan 316 314 316 309 301 nan nan nan nan
256 258 260 265 266 265 266 265 262 260 259 263 271 278 281 277 277 278 283 279 288 289 295 292 287 267 273 273 272 249 267 274 281 266 262 258 257 268 273 285 274 263 272 265 256 254 261 265 268 283 287 292 295 298 299 302 309 298 301 284 285 299 300 302 302 303 308 308 309 308 305 300 nan nan nan nan nan nan nan 306 300 300 nan nan nan
254 257 261 264 267 265 263 261 262 260 260 262 269 275 281 279 278 275 281 281 278 290 292 288 287 266 247 258 261 262 268 291 305 nan 248 247 255 261 267 262 264 268 261 270 265 265 266 277 285 285 290 295 297 293 295 294 296 298 294 289 281 277 292 301 305 309 308 308 308 303 297 291 288 287 287 286 285 287 294 298 296 292 293 296 297
255 259 262 264 264 262 261 258 260 261 266 269 275 279 279 280 279 280 279 280 279 282 287 287 286 277 264 249 248 250 262 277 253 276 274 251 251 260 257 260 263 251 247 251 265 269 274 nan 288 290 292 293 296 300 298 295 nan nan 274 282 284 284 284 292 299 303 303 299 295 294 292 nan nan nan nan nan nan nan 282 285 284 281 279 278 275
258 263 266 266 263 261 259 257 260 265 270 275 278 278 275 273 273 270 270 272 276 276 283 284 291 287 282 282 273 258 264 270 234 253 260 269 nan 268 262 259 nan nan nan nan nan nan nan 283 287 290 287 291 296 296 297 295 295 292 288 278 283 281 281 nan nan nan 289 292 295 nan nan nan nan nan nan nan nan nan nan nan nan nan nan nan nan
262 264 266 264 261 259 259 259 259 264 270 274 275 276 274 272 273 271 271 273 274 273 277 284 290 286 292 281 280 272 271 261 250 226 268 276 280 279 271 nan nan nan nan nan nan nan nan nan nan nan 288 290 nan nan nan nan nan nan nan nan 278 281 nan nan nan nan nan nan nan nan nan nan nan nan nan nan nan nan nan nan nan nan nan nan nan
265 266 262 260 259 259 261 264 265 268 270 272 274 274 273 272 272 268 269 274 275 279 284 276 274 259 278 276 277 274 274 268 267 259 250 275 286 284 285 286 nan nan nan nan nan nan nan nan nan nan nan nan nan nan nan nan nan nan nan nan nan nan nan nan nan nan nan nan nan nan nan nan nan nan nan nan nan nan nan nan nan nan nan nan nan
266 261 258 256 257 257 259 265 268 271 272 274 274 273 271 269 270 272 275 279 279 282 277 269 277 270 278 272 265 277 268 277 277 272 269 263 276 277 283 276 nan nan nan nan nan nan nan nan nan nan nan nan nan nan nan nan nan nan nan nan nan nan nan nan nan nan nan nan nan nan nan nan nan nan nan nan nan nan nan nan nan nan nan nan nan
267 262 257 255 256 257 260 266 271 274 274 271 270 270 268 269 271 272 276 279 276 279 279 277 272 275 271 263 251 250 260 265 274 277 271 271 277 280 277 283 290 nan nan nan nan nan nan nan nan nan nan nan nan nan nan nan nan nan nan nan nan nan nan nan nan nan nan nan nan nan nan nan nan nan nan nan nan nan nan nan nan nan nan nan nan
270 265 260 261 258 261 263 265 269 270 270 269 267 265 264 266 269 275 276 282 282 281 279 274 277 275 273 267 273 276 272 257 267 270 268 267 271 282 281 nan nan nan nan nan nan nan nan nan nan nan nan nan nan nan nan nan nan nan nan nan nan nan nan nan nan nan nan nan nan nan nan nan nan nan nan nan nan nan nan nan nan nan nan nan nan
271 267 263 264 262 262 265 266 265 268 268 267 266 265 263 266 270 275 280 279 277 280 273 272 274 268 272 283 282 280 265 264 268 270 270 274 277 285 290 290 nan nan nan nan nan nan nan nan nan nan nan nan nan nan nan nan nan nan nan nan nan nan nan nan nan nan nan nan nan nan nan nan nan nan nan nan nan nan nan nan nan nan nan nan nan
267 263 265 264 264 265 267 267 265 264 264 265 265 264 262 263 269 272 276 276 277 276 269 272 276 285 284 285 279 275 269 269 268 266 272 272 281 287 294 nan nan nan nan nan nan nan nan nan nan nan nan nan nan nan nan nan nan nan nan nan nan nan nan nan nan nan nan nan nan nan nan nan nan nan nan nan nan nan nan nan nan nan nan nan nan
261 260 263 265 266 267 267 264 263 262 263 264 264 263 262 264 269 272 275 273 272 272 266 270 273 283 289 277 280 272 265 261 265 262 263 266 274 281 nan nan nan nan nan nan nan nan nan nan nan nan nan nan nan nan nan nan nan nan nan nan nan nan nan nan nan nan nan nan nan nan nan nan nan nan nan nan nan nan nan nan nan nan nan nan nan
258 257 260 264 265 266 263 260 259 260 262 262 260 260 262 264 268 272 274 273 268 263 261 264 268 278 278 279 267 263 259 255 255 262 261 265 270 278 nan nan nan nan nan nan nan nan nan nan nan nan nan nan nan nan nan nan nan nan nan nan nan nan nan nan nan nan nan nan nan nan nan nan nan nan nan nan nan nan nan nan nan nan nan nan nan
259 257 259 262 262 261 258 nan nan nan 264 263 nan nan 262 264 267 nan nan 271 266 261 259 259 261 264 267 270 261 258 255 258 260 261 264 266 nan nan nan nan nan nan nan nan nan nan nan nan nan nan nan nan nan nan nan nan nan nan nan nan nan nan nan nan nan nan nan nan nan nan nan nan nan nan nan nan nan nan nan nan nan nan nan nan nan
265 263 259 259 259 259 257 nan nan nan nan 264 nan nan nan nan nan nan nan nan nan 259 256 253 254 258 264 264 259 256 259 259 264 267 270 276 nan nan nan nan nan nan nan nan nan nan nan nan nan nan nan nan nan nan nan nan nan nan nan nan nan nan nan nan nan nan nan nan nan nan nan nan nan nan nan nan nan nan nan nan nan nan nan nan nan
265 263 257 261 267 266 264 nan nan nan nan nan nan nan nan nan nan nan nan nan nan nan nan 254 255 256 261 264 260 260 264 268 271 274 278 279 nan nan nan nan nan nan nan nan nan nan nan nan nan nan nan nan nan nan nan nan nan nan nan nan nan nan nan nan nan nan nan nan nan nan nan nan nan nan nan nan nan nan nan nan nan nan nan nan nan
260 258 259 268 275 273 nan nan nan nan nan nan nan nan nan nan nan nan nan nan nan nan nan 255 256 257 259 261 262 263 265 270 272 276 278 280 nan nan nan nan nan nan nan nan nan nan nan nan nan nan nan nan nan nan nan nan nan nan nan nan nan nan nan nan nan nan nan nan nan nan nan nan nan nan nan nan nan nan nan nan nan nan nan nan nan
256 257 262 268 272 275 nan nan nan nan nan nan nan nan nan nan nan nan nan nan nan nan nan nan 265 261 264 267 266 266 267 270 275 nan nan nan nan nan nan nan nan nan nan nan nan nan nan nan nan nan nan nan nan nan nan nan nan nan nan nan nan nan nan nan nan nan nan nan nan nan nan nan nan nan nan nan nan nan nan nan nan nan nan nan nan
256 256 258 264 nan nan nan nan nan nan nan nan nan nan nan nan nan nan nan nan nan nan nan nan nan nan 271 270 271 267 267 273 nan nan nan nan nan nan nan nan nan nan nan nan nan nan nan nan nan nan nan nan nan nan nan nan nan nan nan nan nan nan nan nan nan nan nan nan nan nan nan nan nan nan nan nan nan nan nan nan nan nan nan nan nan
256 253 nan nan nan nan nan nan nan nan nan nan nan nan nan nan nan nan nan nan nan nan nan nan nan nan nan 273 271 272 274 274 271 nan nan nan nan nan nan nan nan nan nan nan nan nan nan nan nan nan nan nan nan nan nan nan nan nan nan nan nan nan nan nan nan nan nan nan nan nan nan nan nan nan nan nan nan nan nan nan nan nan nan nan nan
nan nan nan nan nan nan nan nan nan nan nan nan nan nan nan nan nan nan nan nan nan nan nan nan nan nan nan nan nan 269 270 nan nan nan nan nan nan nan nan nan nan nan 265 268 270 nan nan nan nan nan nan nan nan nan nan nan nan nan nan nan nan nan nan nan nan nan nan nan nan nan nan nan nan nan nan nan nan nan nan nan nan nan nan nan nan
nan nan nan nan nan nan nan nan nan nan nan nan nan nan nan nan nan nan nan nan nan nan nan nan nan nan nan nan nan nan nan nan nan nan nan nan nan nan nan nan nan nan nan nan nan nan nan nan nan nan nan nan nan nan nan nan nan nan nan nan nan nan nan nan nan nan nan nan nan nan nan nan nan nan nan nan nan nan nan nan nan nan nan nan nan
nan nan nan nan nan nan nan nan nan nan nan nan nan nan nan nan nan nan nan nan nan nan nan nan nan nan nan nan nan nan nan nan nan nan nan nan nan nan nan nan nan nan nan nan nan nan nan nan nan nan nan nan nan nan nan nan nan nan nan nan nan nan nan nan nan nan nan nan nan nan nan nan nan nan nan nan nan nan nan nan nan nan nan nan nan
nan nan nan nan nan nan nan nan nan nan nan nan nan nan nan nan nan nan nan nan nan nan nan nan nan nan nan nan nan nan nan nan nan nan nan nan nan nan nan nan nan nan nan nan nan nan nan nan nan nan nan nan nan nan nan nan nan nan nan nan nan nan nan nan nan nan nan nan nan nan nan nan nan nan nan nan nan nan nan nan nan nan nan nan nan
nan nan nan nan nan nan nan nan nan nan nan nan nan nan nan nan nan nan nan nan nan nan nan nan nan nan nan nan 258 259 252 247 nan 243 245 nan 258 265 nan nan nan nan nan nan nan nan nan nan nan nan nan nan nan nan nan nan nan nan nan nan nan nan nan nan nan nan nan nan nan nan nan nan nan nan nan nan nan nan nan nan nan nan nan nan nan
nan nan nan nan nan nan nan nan nan nan nan 258 nan nan nan 250 nan nan nan nan nan nan nan nan nan nan nan nan nan nan nan nan nan nan nan nan nan 247 253 nan nan nan nan nan nan nan nan nan nan nan nan nan nan nan nan nan nan nan nan nan nan nan nan nan nan nan nan nan nan nan nan nan nan nan nan nan nan nan nan nan nan nan nan nan nan
nan nan nan nan nan nan nan nan nan 261 nan nan nan nan nan nan 225 248 nan nan nan nan nan nan nan nan nan nan 262 267 nan nan nan nan nan nan nan nan nan nan nan 258 nan nan nan nan nan nan nan nan nan nan nan nan nan nan nan nan nan nan nan nan nan nan nan nan nan nan nan nan nan nan nan nan nan nan nan nan nan nan nan nan nan nan nan
249 252 nan nan nan nan nan nan 253 nan nan nan nan nan nan nan nan 223 240 247 251 nan nan 255 256 257 258 258 258 259 260 263 262 269 nan nan nan nan nan nan nan nan nan 264 267 nan nan nan nan 277 277 nan nan nan nan nan nan nan nan nan nan nan nan nan nan nan nan nan nan nan nan nan nan nan nan nan nan nan nan nan nan nan nan nan nan
nan nan nan nan nan 247 nan nan nan nan nan nan nan nan nan nan nan nan nan 238 241 248 249 251 252 255 259 260 261 260 260 263 260 262 263 267 nan nan nan nan nan nan nan nan nan nan 266 270 273 276 279 279 nan nan nan nan nan nan nan nan nan nan nan nan nan nan nan nan nan nan nan nan nan nan nan nan nan nan nan nan nan nan nan nan nan
nan nan nan nan nan nan nan nan nan nan nan nan nan nan nan nan nan nan 237 239 241 241 244 248 252 254 257 258 258 261 263 265 263 262 262 262 266 267 nan nan nan 273 nan nan nan nan nan nan 272 276 279 280 281 282 283 285 289 289 nan nan nan nan nan nan nan nan nan nan nan nan nan nan nan nan nan nan nan nan nan nan nan nan nan nan nan
nan nan nan nan nan nan nan nan nan nan nan nan nan nan nan nan nan nan 250 250 252 253 252 253 254 255 258 260 261 261 262 265 264 264 265 265 264 264 264 265 267 267 272 276 nan nan nan nan nan 277 278 280 279 280 281 283 287 287 287 288 289 nan nan nan nan nan nan nan nan nan nan nan nan nan nan nan nan nan nan nan nan nan nan nan nan
nan nan nan nan nan nan nan nan nan nan nan nan nan nan nan nan nan 255 258 258 259 258 260 261 261 263 264 265 267 269 271 271 271 268 260 260 265 266 266 267 267 268 271 268 264 263 263 266 270 270 270 269 nan 272 273 277 283 285 287 nan nan nan nan nan nan nan nan nan nan nan nan nan nan nan nan nan nan nan nan nan nan nan nan nan nan
nan nan nan nan nan nan nan nan nan nan nan nan nan nan nan nan nan 257 258 261 262 263 264 265 266 266 266 264 262 263 265 268 273 273 270 nan 270 269 269 268 268 269 269 268 265 nan nan nan nan nan nan 271 276 280 284 284 285 285 289 nan nan nan nan nan nan nan nan nan nan nan nan nan nan nan nan nan nan nan nan nan nan nan nan nan nan
nan nan nan nan nan nan nan nan nan nan nan nan nan nan nan nan nan nan nan 258 259 261 263 264 264 265 266 268 nan 265 270 268 270 273 277 276 275 275 273 273 273 273 271 271 271 271 nan 273 273 nan 276 279 283 285 286 288 290 290 293 nan nan nan nan nan nan nan nan nan nan nan nan nan nan nan nan nan nan nan nan nan nan nan nan nan nan
nan nan nan nan nan nan nan nan nan nan nan nan nan nan nan nan nan nan nan nan nan nan nan nan 264 263 267 274 nan nan 263 268 268 268 269 272 274 276 276 275 276 274 273 273 275 275 nan nan 277 279 nan nan nan nan nan nan nan nan nan nan nan nan nan nan nan nan nan nan nan nan nan nan nan nan nan nan nan nan nan nan nan nan nan nan nan